Weather History for Chignik, AK

Change the Weather History Date:

Sunday, November 3, 2013

  Actual Average Record
Temperature  
Mean Temperature 42 °F -  
Max Temperature 44 °F 40 °F 51 °F (2011)
Min Temperature 39 °F 34 °F 24 °F (2001)
Degree Days  
Heating Degree Days 24    
Moisture  
Dew Point 39 °F    
Average Humidity 87    
Maximum Humidity 93    
Minimum Humidity 76    
Precipitation  
Precipitation 0.09 in - - ()
Sea Level Pressure  
Sea Level Pressure 29.47 in    
Wind  
Wind Speed 4 mph (East)    
Max Wind Speed 12 mph    
Max Gust Speed 18 mph    
Visibility 10 miles    
Events      
Averages and records for this station are not official NWS values.
T = Trace of Precipitation, MM = Missing Value Source: NWS Daily Summary

Daily Weather History Graph

Daily Weather History Graph

Search for Another Location

Airport:

Trip Planner

Search our weather history database for the weather conditions in past years. The results will help you decide how hot, cold, wet, or windy it might be!

Date:

Astronomy

Nov. 03, 2013 Rise Set
Actual Time 8:46 AM AKST 5:46 PM AKST
Civil Twilight 8:06 AM AKST 6:26 PM AKST
Nautical Twilight 7:21 AM AKST 7:11 PM AKST
Astronomical Twilight 6:38 AM AKST 7:54 PM AKST
Moon 9:09 AM AKST (11/3) 6:01 PM AKST (11/3)
Length of Visible Light 10h 20m
Length of Day
8h 59m
Waxing Crescent, 0% of the Moon is Illuminated
Nov 3
Waxing Crescent
Nov 9
First Quarter
Nov 17
Full
Nov 25
Last Quarter
Dec 2
New

Hourly Weather History & Observations

Time (AKST) Temp. Windchill Dew Point Humidity Pressure Visibility Wind Dir Wind Speed Gust Speed Precip Events Conditions
12:16 AM 42.8 °F 40.1 °F 41.0 °F 93% 29.58 in 10.0 mi North 4.6 mph - N/A   Clear
12:36 AM 41.0 °F - 37.4 °F 87% 29.57 in 10.0 mi Calm Calm - N/A   Partly Cloudy
12:56 AM 39.2 °F - 37.4 °F 93% 29.58 in 10.0 mi Calm Calm - N/A   Scattered Clouds
1:16 AM 42.8 °F - 39.2 °F 87% 29.58 in 10.0 mi Calm Calm - N/A   Mostly Cloudy
1:36 AM 42.8 °F - 41.0 °F 93% 29.58 in 10.0 mi Calm Calm - N/A   Partly Cloudy
1:56 AM 42.8 °F - 39.2 °F 87% 29.59 in 10.0 mi Calm Calm - N/A   Partly Cloudy
1:16 AM 42.8 °F - 39.2 °F 87% 29.59 in 10.0 mi Calm Calm - N/A   Scattered Clouds
1:36 AM 41.0 °F - 39.2 °F 93% 29.59 in 10.0 mi Calm Calm - N/A   Overcast
1:56 AM 42.8 °F - 39.2 °F 87% 29.59 in 10.0 mi Calm Calm - N/A   Overcast
2:16 AM 42.8 °F 40.1 °F 39.2 °F 87% 29.58 in 10.0 mi SSE 4.6 mph - N/A   Overcast
3:36 AM 42.8 °F 41.1 °F 41.0 °F 93% 29.56 in 10.0 mi ENE 3.5 mph - N/A   Mostly Cloudy
3:56 AM 42.8 °F - 39.2 °F 87% 29.55 in 10.0 mi Calm Calm - N/A   Partly Cloudy
4:16 AM 41.0 °F - 39.2 °F 93% 29.55 in 10.0 mi Calm Calm - N/A   Clear
4:36 AM 41.0 °F - 39.2 °F 93% 29.54 in 10.0 mi Calm Calm - N/A   Clear
4:56 AM 42.8 °F - 39.2 °F 87% 29.54 in 10.0 mi Calm Calm - N/A   Scattered Clouds
5:16 AM 41.0 °F 39.0 °F 39.2 °F 93% 29.53 in 10.0 mi SSE 3.5 mph - N/A   Partly Cloudy
5:36 AM 41.0 °F - 39.2 °F 93% 29.53 in 10.0 mi Calm Calm - N/A   Clear
5:56 AM 41.0 °F - 37.4 °F 87% 29.53 in 10.0 mi Calm Calm - N/A   Clear
6:16 AM 42.8 °F - 39.2 °F 87% 29.52 in 10.0 mi Calm Calm - N/A   Partly Cloudy
6:36 AM 41.0 °F - 39.2 °F 93% 29.51 in 10.0 mi Calm Calm - N/A   Scattered Clouds
6:56 AM 42.8 °F 40.1 °F 41.0 °F 93% 29.51 in 10.0 mi SSE 4.6 mph - N/A   Mostly Cloudy
7:16 AM 42.8 °F - 39.2 °F 87% 29.50 in 10.0 mi Calm Calm - N/A   Mostly Cloudy
7:36 AM 42.8 °F - 39.2 °F 87% 29.50 in 10.0 mi Calm Calm - N/A   Overcast
7:56 AM 42.8 °F 41.1 °F 39.2 °F 87% 29.50 in 10.0 mi SW 3.5 mph - N/A   Overcast
8:16 AM 42.8 °F 41.1 °F 41.0 °F 93% 29.49 in 10.0 mi NW 3.5 mph - N/A   Overcast
8:36 AM 42.8 °F 40.1 °F 39.2 °F 87% 29.49 in 10.0 mi NE 4.6 mph - N/A   Overcast
8:56 AM 44.6 °F 40.7 °F 39.2 °F 81% 29.49 in 10.0 mi East 6.9 mph - N/A   Overcast
9:16 AM 44.6 °F 43.1 °F 37.4 °F 76% 29.50 in 10.0 mi East 3.5 mph - N/A   Overcast
9:36 AM 42.8 °F 39.3 °F 39.2 °F 87% 29.51 in 10.0 mi North 5.8 mph - N/A   Mostly Cloudy
9:56 AM 42.8 °F 41.1 °F 41.0 °F 93% 29.50 in 10.0 mi North 3.5 mph - N/A   Mostly Cloudy
10:16 AM 42.8 °F 39.3 °F 41.0 °F 93% 29.50 in 10.0 mi NNW 5.8 mph - N/A   Overcast
10:36 AM 42.8 °F - 41.0 °F 93% 29.50 in 10.0 mi Calm Calm - N/A   Overcast
10:56 AM 44.6 °F 39.2 °F 41.0 °F 87% 29.50 in 10.0 mi ESE 10.4 mph - N/A   Overcast
11:16 AM 44.6 °F 39.7 °F 39.2 °F 81% 29.49 in 9.0 mi ESE 9.2 mph 18.4 mph N/A   Overcast
11:36 AM 44.6 °F 39.7 °F 39.2 °F 81% 29.48 in 10.0 mi ESE 9.2 mph 17.3 mph N/A   Overcast
11:56 AM 42.8 °F 37.0 °F 41.0 °F 93% 29.48 in 8.0 mi ESE 10.4 mph - 0.01 in   Overcast
12:16 PM 44.6 °F 38.8 °F 41.0 °F 87% 29.48 in 10.0 mi ESE 11.5 mph 18.4 mph 0.02 in   Overcast
12:36 PM 42.8 °F 38.0 °F 39.2 °F 87% 29.47 in 10.0 mi ESE 8.1 mph - 0.03 in   Mostly Cloudy
12:56 PM 42.8 °F 37.5 °F 39.2 °F 87% 29.46 in 7.0 mi ESE 9.2 mph - 0.05 in   Overcast
1:16 PM 42.8 °F 36.6 °F 39.2 °F 87% 29.45 in 9.0 mi ESE 11.5 mph - 0.02 in   Overcast
1:36 PM 42.8 °F 36.6 °F 39.2 °F 87% 29.44 in 10.0 mi ESE 11.5 mph - 0.02 in   Overcast
1:56 PM 42.8 °F 37.0 °F 39.2 °F 87% 29.44 in 10.0 mi SE 10.4 mph - 0.02 in   Overcast
2:16 PM 42.8 °F 37.5 °F 37.4 °F 81% 29.44 in 10.0 mi ESE 9.2 mph - N/A   Overcast
2:36 PM 42.8 °F 38.0 °F 39.2 °F 87% 29.44 in 10.0 mi ESE 8.1 mph - N/A   Overcast
2:56 PM 42.8 °F 38.0 °F 39.2 °F 87% 29.43 in 10.0 mi ESE 8.1 mph - N/A   Overcast
3:16 PM 42.8 °F 38.0 °F 39.2 °F 87% 29.42 in 10.0 mi SE 8.1 mph - N/A   Overcast
3:36 PM 42.8 °F 37.0 °F 39.2 °F 87% 29.41 in 10.0 mi ESE 10.4 mph - 0.01 in   Overcast
3:56 PM 42.8 °F 37.5 °F 39.2 °F 87% 29.41 in 10.0 mi ESE 9.2 mph - 0.01 in   Overcast
4:16 PM 42.8 °F 37.5 °F 39.2 °F 87% 29.40 in 10.0 mi ESE 9.2 mph 16.1 mph N/A   Mostly Cloudy
4:36 PM 42.8 °F 38.6 °F 39.2 °F 87% 29.40 in 10.0 mi ESE 6.9 mph - N/A   Mostly Cloudy
4:56 PM 42.8 °F 38.0 °F 39.2 °F 87% 29.40 in 10.0 mi ESE 8.1 mph - N/A   Overcast
5:16 PM 42.8 °F 38.0 °F 39.2 °F 87% 29.40 in 10.0 mi ESE 8.1 mph - N/A   Overcast
5:36 PM 42.8 °F 36.6 °F 39.2 °F 87% 29.39 in 10.0 mi ESE 11.5 mph - N/A   Overcast
5:56 PM 42.8 °F 36.6 °F 39.2 °F 87% 29.39 in 10.0 mi ESE 11.5 mph - N/A   Overcast
6:16 PM 42.8 °F 37.0 °F 39.2 °F 87% 29.39 in 10.0 mi East 10.4 mph - N/A   Overcast
6:36 PM 42.8 °F 37.5 °F 39.2 °F 87% 29.39 in 10.0 mi ESE 9.2 mph - N/A   Mostly Cloudy
6:56 PM 42.8 °F 37.0 °F 39.2 °F 87% 29.39 in 10.0 mi ESE 10.4 mph - N/A   Mostly Cloudy
7:16 PM 42.8 °F 40.1 °F 39.2 °F 87% 29.39 in 10.0 mi ENE 4.6 mph - N/A   Overcast
7:36 PM 42.8 °F - 39.2 °F 87% 29.38 in 10.0 mi Calm Calm - N/A   Overcast
7:56 PM 42.8 °F 39.3 °F 39.2 °F 87% 29.38 in 10.0 mi East 5.8 mph - N/A   Overcast
8:16 PM 42.8 °F 39.3 °F 39.2 °F 87% 29.37 in 10.0 mi NNW 5.8 mph - N/A   Scattered Clouds
8:36 PM 39.2 °F 37.0 °F 37.4 °F 93% 29.37 in 10.0 mi ENE 3.5 mph - N/A   Mostly Cloudy
8:56 PM 42.8 °F 41.1 °F 39.2 °F 87% 29.37 in 10.0 mi East 3.5 mph - N/A   Mostly Cloudy
9:16 PM 42.8 °F - 39.2 °F 87% 29.36 in 10.0 mi Calm Calm - N/A   Mostly Cloudy
9:36 PM 42.8 °F - 37.4 °F 81% 29.36 in 10.0 mi Calm Calm - N/A   Overcast
9:56 PM 42.8 °F 40.1 °F 39.2 °F 87% 29.36 in 10.0 mi ESE 4.6 mph - N/A   Overcast
10:16 PM 42.8 °F 41.1 °F 37.4 °F 81% 29.35 in 10.0 mi NE 3.5 mph - N/A   Overcast
10:36 PM 42.8 °F 38.0 °F 35.6 °F 76% 29.35 in 10.0 mi NNE 8.1 mph - N/A   Mostly Cloudy
10:56 PM 42.8 °F 38.6 °F 35.6 °F 76% 29.35 in 10.0 mi NNE 6.9 mph - N/A   Mostly Cloudy